Roanoke Regional Airport Airport (ROA)

 

Airport Diagram
Current Weather/Forecast (VFR Conditions)
METAR KROA 211454Z 28011KT 10SM SCT028 09/06 A3011 RMK AO2 SLP199 T00890061 53017
TAF KROA 211326Z 2113/2212 33006KT P6SM SCT025 FM211500 29008KT P6SM BKN035 FM211800 29010KT P6SM SCT035 BKN200

All Charts
General
Chart Name Download
AIRPORT DIAGRAM
TAKEOFF MINIMUMS
ALTERNATE MINIMUMS
HOT SPOT

Departures
Chart Name Download
BUFIY TWO (RNAV)
DIXXY SEVEN
HOKEE THREE
MONAT TWO (RNAV)
SCUTA TWO (RNAV)

Approaches
Chart Name Download
ILS OR LOC RWY 34
RNAV (GPS) RWY 06
RNAV (GPS) RWY 24
RNAV (GPS) RWY 34
LDA Y RWY 06
LDA Z RWY 06
VOR/DME-A


Inbound Traffic (Arrivals)

No inbound traffic.


Outbound Traffic (Departures)

No outbound traffic.